Location: Amsterdam
(30.7274°N, 84.4357°W)
Time: 17:40:03
(UTC+00:00)

Transit 2A Rocket - Pass Details

Date: 24 February 2026
Orbit: 583 x 900 km, 66.7° (Epoch: 12 March)

Event Time Altitude Azimuth Distance (km) Brightness Sun altitude
Rises 06:21:23 0° 322° (NW) 3,222 - -67.6°
Reaches altitude 10° 06:24:08 10° 311° (NW) 2,235 - -67.4°
Maximum altitude 06:28:26 28° 253° (WSW) 1,271 - -67.0°
Drops below altitude 10° 06:32:25 10° 194° (SSW) 2,054 - -66.6°
Sets 06:34:51 0° 182° (S) 2,915 - -66.4°
